N3PL Weather Reports


Display with metric or nautical units.
time (UTC)temp
F
wind
direction
speed
MPH
gust
MPH
rain 1hr
in
rain 24hr
in
rain mn
in
humidity
%
barometer
mb
20260509184009 58 325 0.0 0.0 0.00 0.00 0.00 72 1006.4
20260509183603 59 325 0.0 0.0 0.00 0.00 0.00 73 1006.4
20260509183008 59 325 0.0 0.0 0.00 0.00 0.00 73 1006.4
20260509182601 59 325 0.0 0.0 0.00 0.00 0.00 73 1006.4
20260509182104 59 313 0.0 0.0 0.00 0.00 0.00 74 1006.4
20260509181502 59 313 0.0 0.0 0.00 0.00 0.00 74 1006.4
20260509181006 59 313 0.0 0.0 0.00 0.00 0.00 74 1006.5
20260509180559 59 313 0.0 0.0 0.00 0.00 0.00 74 1006.5
20260509180110 59 296 0.0 0.0 0.00 0.00 0.00 73 1006.5
20260509175606 59 296 0.0 0.0 0.00 0.00 0.00 73 1006.5
20260509175004 60 296 0.0 0.0 0.00 0.00 0.00 72 1006.5
20260509174556 60 296 0.0 0.0 0.00 0.00 0.00 70 1006.5
20260509174058 60 296 0.0 0.0 0.00 0.00 0.00 69 1006.5
20260509173602 60 296 0.0 0.0 0.00 0.00 0.00 68 1006.5
20260509173058 60 296 0.0 0.0 0.00 0.00 0.00 67 1006.5
20260509172544 60 296 0.0 0.0 0.00 0.00 0.00 67 1006.4
20260509172049 60 296 0.0 0.0 0.00 0.00 0.00 66 1006.4
20260509171551 60 296 0.0 0.0 0.00 0.00 0.00 65 1006.4
20260509171100 60 296 0.0 0.0 0.00 0.00 0.00 65 1006.3
20260509170601 60 296 0.0 0.0 0.00 0.00 0.00 64 1006.3
20260509170105 60 296 0.0 0.0 0.00 0.00 0.00 63 1006.3
20260509165552 60 296 0.0 0.0 0.00 0.00 0.00 64 1006.4
20260509165056 60 296 0.0 0.0 0.00 0.00 0.00 64 1006.4
20260509164559 60 296 0.0 0.0 0.00 0.00 0.00 63 1006.4
20260509164107 60 296 0.0 0.0 0.00 0.00 0.00 63 1006.5
20260509163508 60 296 0.0 0.0 0.00 0.00 0.00 65 1006.5
20260509163010 59 296 0.0 0.0 0.00 0.00 0.00 65 1006.5
20260509162513 59 296 0.0 0.0 0.00 0.00 0.00 65 1006.5
20260509162106 59 296 0.0 0.0 0.00 0.00 0.00 65 1006.5
20260509161554 60 296 0.0 0.0 0.00 0.00 0.00 66 1006.5
20260509161056 60 296 0.0 0.0 0.00 0.00 0.00 68 1006.8
20260509160559 60 296 0.0 0.0 0.00 0.00 0.00 66 1006.8
20260509160004 61 296 0.0 0.0 0.00 0.00 0.00 69 1006.8
20260509155509 61 296 0.0 0.0 0.00 0.00 0.00 68 1007.2
20260509155011 61 296 0.0 0.0 0.00 0.00 0.00 68 1007.2
20260509154604 61 296 0.0 0.0 0.00 0.00 0.00 66 1007.2
20260509154006 61 296 0.0 0.0 0.00 0.00 0.00 65 1007.3
20260509153506 62 296 0.0 0.0 0.00 0.00 0.00 64 1007.3
20260509153101 62 296 0.0 0.0 0.00 0.00 0.00 63 1007.3
20260509152604 62 296 0.0 0.0 0.00 0.00 0.00 62 1007.3
20260509152106 62 296 0.0 0.0 0.00 0.00 0.00 61 1007.3
20260509151503 62 296 0.0 0.0 0.00 0.00 0.00 63 1007.3
20260509151057 62 296 0.0 0.0 0.00 0.00 0.00 63 1007.4
20260509150605 62 296 0.0 0.0 0.00 0.00 0.00 64 1007.4
20260509150002 62 296 0.0 0.0 0.00 0.00 0.00 64 1007.4
20260509145504 62 296 0.0 0.0 0.00 0.00 0.00 64 1007.2
20260509145007 62 281 0.0 0.0 0.00 0.00 0.00 63 1007.2
20260509144510 62 281 0.0 0.0 0.00 0.00 0.00 63 1007.2
20260509144101 61 281 0.0 0.0 0.00 0.00 0.00 63 1007.1
20260509143605 61 281 0.0 0.0 0.00 0.00 0.00 64 1007.1
20260509143003 61 281 0.0 0.0 0.00 0.00 0.00 65 1007.1
20260509142507 61 281 0.0 0.0 0.00 0.00 0.00 65 1007.0
20260509142103 61 281 0.0 0.0 0.00 0.00 0.00 65 1007.0
20260509141608 61 281 0.0 0.0 0.00 0.00 0.00 66 1007.0
20260509141002 61 265 0.0 0.0 0.00 0.00 0.00 66 1007.0
20260509140504 61 265 0.0 0.0 0.00 0.00 0.00 67 1007.0
20260509140006 60 265 0.0 0.0 0.00 0.00 0.00 67 1007.0
20260509135508 60 265 0.0 0.0 0.00 0.00 0.00 68 1007.0
20260509135011 60 265 0.0 0.0 0.00 0.00 0.00 68 1007.0
20260509134513 60 256 0.0 0.0 0.00 0.00 0.00 69 1007.0
20260509134107 59 256 0.0 0.0 0.00 0.00 0.00 69 1007.0
20260509133503 59 253 0.0 0.0 0.00 0.00 0.00 69 1007.0
20260509133006 59 253 0.0 0.0 0.00 0.00 0.00 70 1007.0
20260509132510 59 253 0.0 0.0 0.00 0.00 0.00 71 1006.9
20260509132103 59 253 0.0 0.0 0.00 0.00 0.00 71 1006.9
20260509131548 58 253 0.0 0.0 0.00 0.00 0.00 72 1006.9
20260509131051 58 253 0.0 0.0 0.00 0.00 0.00 73 1007.0
20260509130554 58 330 0.0 0.0 0.00 0.00 0.00 73 1007.0
20260509130108 58 330 0.0 0.0 0.00 0.00 0.00 74 1007.0
20260509125604 58 330 0.0 0.0 0.00 0.00 0.00 75 1007.1
20260509125005 57 330 0.0 0.0 0.00 0.00 0.00 75 1007.1
20260509124505 57 330 0.0 0.0 0.00 0.00 0.00 76 1007.1
20260509124010 57 330 0.0 0.0 0.00 0.00 0.00 76 1007.1
20260509123511 57 330 0.0 0.0 0.00 0.00 0.00 77 1007.1
20260509123105 56 330 0.0 0.0 0.00 0.00 0.00 77 1007.1
20260509122503 56 330 0.0 0.0 0.00 0.00 0.00 77 1007.2
20260509122006 56 330 0.0 0.0 0.00 0.00 0.00 77 1007.2
20260509121602 56 330 0.0 0.0 0.00 0.00 0.00 78 1007.2
20260509121002 56 330 0.0 0.0 0.00 0.00 0.00 78 1007.1
20260509120506 55 330 0.0 0.0 0.00 0.00 0.00 78 1007.1
20260509115602 55 330 0.0 0.0 0.00 0.00 0.00 78 1007.0
20260509115004 55 285 0.0 0.0 0.00 0.00 0.00 79 1007.0
20260509114505 55 285 0.0 0.0 0.00 0.00 0.00 79 1007.0
20260509114059 55 285 0.0 0.0 0.00 0.00 0.00 79 1007.0
20260509113604 55 285 0.0 0.0 0.00 0.00 0.00 79 1007.0
20260509113131 54 285 0.0 0.0 0.00 0.00 0.00 79 1007.0
20260509112504 54 285 0.0 0.0 0.00 0.00 0.00 79 1006.9
20260509112011 54 285 0.0 0.0 0.00 0.00 0.00 79 1006.9
20260509111517 54 285 0.0 0.0 0.00 0.00 0.00 79 1006.9
20260509111106 54 285 0.0 0.0 0.00 0.00 0.00 79 1006.9
20260509110501 54 285 0.0 0.0 0.00 0.00 0.00 79 1006.9
20260509110005 54 285 0.0 0.0 0.00 0.00 0.00 78 1006.9
20260509105559 54 285 0.0 0.0 0.00 0.00 0.00 78 1006.9
20260509105101 54 285 0.0 0.0 0.00 0.00 0.00 77 1006.9
20260509104605 54 285 0.0 0.0 0.00 0.00 0.00 77 1006.9
20260509104000 54 285 0.0 0.0 0.00 0.00 0.00 77 1006.8
20260509103554 54 285 0.0 0.0 0.00 0.00 0.00 77 1006.8
20260509103059 54 285 0.0 0.0 0.00 0.00 0.00 77 1006.8
20260509102600 54 285 0.0 0.0 0.00 0.00 0.00 77 1006.7
20260509102103 54 285 0.0 0.0 0.00 0.00 0.00 76 1006.7
20260509101551 55 285 0.0 0.0 0.00 0.00 0.00 76 1006.7
20260509101038 55 285 0.0 0.0 0.00 0.00 0.00 76 1006.5
20260509100545 55 285 0.0 0.0 0.00 0.00 0.00 75 1006.5
20260509100109 55 285 0.0 0.0 0.00 0.00 0.00 75 1006.5
20260509095600 55 285 0.0 0.0 0.00 0.00 0.00 75 1006.6
20260509095000 55 284 0.0 0.0 0.00 0.00 0.00 75 1006.6
20260509094504 55 284 0.0 0.0 0.00 0.00 0.00 75 1006.6
20260509094005 55 284 0.0 0.0 0.00 0.00 0.00 75 1006.5
20260509093510 55 284 0.0 0.0 0.00 0.00 0.00 75 1006.5
20260509093108 54 284 0.0 0.0 0.00 0.00 0.00 75 1006.5
20260509092605 54 284 0.0 0.0 0.00 0.00 0.00 75 1006.6
20260509092004 54 284 0.0 0.0 0.00 0.00 0.00 75 1006.6
20260509091505 54 284 0.0 0.0 0.00 0.00 0.00 75 1006.6
20260509091059 54 284 0.0 0.0 0.00 0.00 0.00 75 1006.7
20260509090601 54 284 0.0 0.0 0.00 0.00 0.00 75 1006.7
20260509090105 54 284 0.0 0.0 0.00 0.00 0.00 75 1006.7
20260509085503 54 284 0.0 0.0 0.00 0.00 0.00 74 1006.8
20260509085057 54 284 0.0 0.0 0.00 0.00 0.00 74 1006.8
20260509084604 54 284 0.0 0.0 0.00 0.00 0.00 74 1006.8
20260509084004 54 284 0.0 0.0 0.00 0.00 0.00 74 1006.9
20260509083556 54 284 0.0 0.0 0.00 0.00 0.00 74 1006.9
20260509083100 54 284 0.0 0.0 0.00 0.00 0.00 74 1006.9
20260509082606 54 284 0.0 0.0 0.00 0.00 0.00 74 1006.8
20260509082001 54 284 0.0 0.0 0.00 0.00 0.00 74 1006.8
20260509081601 54 284 0.0 0.0 0.00 0.00 0.00 74 1006.8
20260509081057 54 284 0.0 0.0 0.00 0.00 0.00 74 1007.0
20260509080602 53 284 0.0 0.0 0.00 0.00 0.00 74 1007.0
20260509075606 53 284 0.0 0.0 0.00 0.00 0.00 74 1007.0
20260509075003 53 284 0.0 0.0 0.00 0.00 0.00 74 1007.0
20260509074505 53 284 0.0 0.0 0.00 0.00 0.00 74 1007.0
20260509074103 53 284 0.0 0.0 0.00 0.00 0.00 74 1007.1
20260509073552 53 284 0.0 0.0 0.00 0.00 0.00 74 1007.1
20260509073105 53 284 0.0 0.0 0.00 0.00 0.00 74 1007.1
20260509072559 53 284 0.0 0.0 0.00 0.00 0.00 74 1007.2
20260509072104 53 284 0.0 0.0 0.00 0.00 0.00 73 1007.2
20260509071500 53 284 0.0 0.0 0.00 0.00 0.00 73 1007.2
20260509071006 53 284 0.0 0.0 0.00 0.00 0.00 73 1007.2
20260509070600 53 284 0.0 0.0 0.00 0.00 0.00 72 1007.2
20260509070050 53 284 0.0 0.0 0.00 0.00 0.00 70 1007.2
20260509065550 53 284 0.0 0.0 0.00 0.00 0.00 69 1007.4
20260509065053 53 284 0.0 0.0 0.00 0.00 0.00 69 1007.4
20260509064555 53 284 0.0 0.0 0.00 0.00 0.00 68 1007.4
20260509064101 53 284 0.0 0.0 0.00 0.00 0.00 67 1007.5
20260509063606 54 284 0.0 0.0 0.00 0.00 0.00 67 1007.5
20260509063000 54 284 0.0 0.0 0.00 0.00 0.00 66 1007.5
20260509062506 54 284 0.0 0.0 0.00 0.00 0.00 65 1007.7
20260509062006 54 284 0.0 0.0 0.00 0.00 0.00 65 1007.7
20260509061532 55 284 0.0 0.0 0.00 0.00 0.00 65 1007.7
20260509061004 55 284 0.0 0.0 0.00 0.00 0.00 64 1007.8
20260509060507 55 284 0.0 0.0 0.00 0.00 0.00 64 1007.8
20260509060012 55 284 0.0 0.0 0.00 0.00 0.00 63 1007.8
20260509055605 55 284 0.0 0.0 0.00 0.00 0.00 63 1007.9
20260509055002 56 284 0.0 0.0 0.00 0.00 0.00 62 1007.9
20260509054505 56 284 0.0 0.0 0.00 0.00 0.00 62 1007.9
20260509054058 56 284 0.0 0.0 0.00 0.00 0.00 61 1008.0
20260509053503 56 284 0.0 0.0 0.00 0.00 0.00 61 1008.0
20260509053016 57 284 0.0 0.0 0.00 0.00 0.00 60 1008.0
20260509052510 57 284 0.0 0.0 0.00 0.00 0.00 59 1008.0
20260509052104 57 284 0.0 0.0 0.00 0.00 0.00 58 1008.0
20260509051504 57 284 0.0 0.0 0.00 0.00 0.00 58 1008.0
20260509051006 57 284 0.0 0.0 0.00 0.00 0.00 57 1008.2
20260509050600 57 284 0.0 0.0 0.00 0.00 0.00 57 1008.2
20260509045503 57 284 0.0 0.0 0.00 0.00 0.00 55 1008.2
20260509045056 57 284 0.0 0.0 0.00 0.00 0.00 55 1008.2
20260509044559 57 284 0.0 0.0 0.00 0.00 0.00 55 1008.2
20260509044106 57 284 0.0 0.0 0.00 0.00 0.00 55 1008.2
20260509043500 57 284 0.0 0.0 0.00 0.00 0.00 54 1008.2
20260509043100 58 284 0.0 0.0 0.00 0.00 0.00 53 1008.2
20260509042602 58 284 0.0 0.0 0.00 0.00 0.00 53 1008.3
20260509042105 58 284 0.0 0.0 0.00 0.00 0.00 53 1008.3
20260509041606 58 284 0.0 0.0 0.00 0.00 0.00 52 1008.3
20260509041003 58 284 0.0 0.0 0.00 0.00 0.00 51 1008.2
20260509040506 58 284 0.0 0.0 0.00 0.00 0.00 52 1008.2
20260509040009 58 284 0.0 0.0 0.00 0.00 0.00 51 1008.2
20260509035603 58 284 0.0 0.0 0.00 0.00 0.00 52 1008.2
20260509035050 58 284 0.0 0.0 0.00 0.00 0.00 52 1008.2
20260509034601 58 284 0.0 0.0 0.00 0.00 0.00 54 1008.2
20260509034054 58 284 0.0 0.0 0.00 0.00 0.00 54 1008.4
20260509033602 59 284 0.0 0.0 0.00 0.00 0.00 56 1008.4
20260509033101 59 284 0.0 0.0 0.00 0.00 0.00 55 1008.4
20260509032603 59 284 0.0 0.0 0.00 0.00 0.00 55 1008.4
20260509032050 59 284 0.0 0.0 0.00 0.00 0.00 52 1008.4
20260509031554 60 284 0.0 0.0 0.00 0.00 0.00 53 1008.4
20260509031056 60 284 0.0 0.0 0.00 0.00 0.00 53 1008.4
20260509030559 60 284 0.0 0.0 0.00 0.00 0.00 52 1008.4
20260509025605 60 284 0.0 0.0 0.00 0.00 0.00 50 1008.3
20260509025002 60 284 0.0 0.0 0.00 0.00 0.00 50 1008.3
20260509024505 60 284 0.0 0.0 0.00 0.00 0.00 49 1008.3
20260509024057 60 284 0.0 0.0 0.00 0.00 0.00 49 1008.2
20260509023600 61 284 0.0 0.0 0.00 0.00 0.00 49 1008.2
20260509023103 61 284 0.0 0.0 0.00 0.00 0.00 48 1008.2
20260509022553 61 284 0.0 0.0 0.00 0.00 0.00 48 1008.3
20260509022056 61 284 0.0 0.0 0.00 0.00 0.00 48 1008.3
20260509021559 61 284 0.0 0.0 0.00 0.00 0.00 48 1008.3
20260509021102 61 284 0.0 0.0 0.00 0.00 0.00 48 1008.3
20260509020604 61 284 0.0 0.0 0.00 0.00 0.00 48 1008.3
20260509020005 61 284 0.0 0.0 0.00 0.00 0.00 48 1008.3
20260509015507 61 284 0.0 0.0 0.00 0.00 0.00 47 1008.3
20260509015100 61 284 0.0 0.0 0.00 0.00 0.00 47 1008.3
20260509014604 61 284 0.0 0.0 0.00 0.00 0.00 47 1008.3
20260509014000 61 284 0.0 0.0 0.00 0.00 0.00 47 1008.2
20260509013506 61 284 0.0 0.0 0.00 0.00 0.00 47 1008.2
20260509013058 62 284 0.0 0.0 0.00 0.00 0.00 47 1008.2
20260509012601 62 284 0.0 0.0 0.00 0.00 0.00 46 1007.9
20260509012105 62 284 0.0 0.0 0.00 0.00 0.00 46 1007.9
20260509011501 62 284 0.0 0.0 0.00 0.00 0.00 46 1007.9
20260509011003 62 284 0.0 0.0 0.00 0.00 0.00 46 1007.7
20260509010557 62 284 0.0 0.0 0.00 0.00 0.00 45 1007.7
20260509010100 62 284 0.0 0.0 0.00 0.00 0.00 45 1007.7
20260509005505 62 284 0.0 0.0 0.00 0.00 0.00 45 1007.4
20260509005005 62 284 0.0 0.0 0.00 0.00 0.00 44 1007.4
20260509004518 62 284 0.0 0.0 0.00 0.00 0.00 44 1007.4
20260509004008 62 284 0.0 0.0 0.00 0.00 0.00 44 1007.2
20260509003600 62 284 0.0 0.0 0.00 0.00 0.00 43 1007.2
20260509003006 62 284 0.0 0.0 0.00 0.00 0.00 43 1007.2
20260509002505 63 284 0.0 0.0 0.00 0.00 0.00 43 1007.0
20260509002103 63 284 0.0 0.0 0.00 0.00 0.00 43 1007.0
20260509001605 63 284 0.0 0.0 0.00 0.00 0.00 43 1007.0
20260509001002 63 284 0.0 0.0 0.00 0.00 0.00 42 1007.0
20260509000557 63 284 0.0 0.0 0.00 0.00 0.00 41 1007.0
20260508235603 63 284 0.0 0.0 0.00 0.00 0.00 41 1006.9
20260508235104 63 284 0.0 0.0 0.00 0.00 0.00 40 1006.9
20260508234608 63 284 0.0 0.0 0.00 0.00 0.00 40 1006.9
20260508234004 63 284 0.0 0.0 0.00 0.00 0.00 39 1006.8
20260508233506 64 284 0.0 0.0 0.00 0.00 0.00 39 1006.8
20260508233107 64 284 0.0 0.0 0.00 0.00 0.00 39 1006.8
20260508232604 64 284 0.0 0.0 0.00 0.00 0.00 38 1006.6
20260508232006 64 284 0.0 0.0 0.00 0.00 0.00 38 1006.6
20260508231634 64 284 0.0 0.0 0.00 0.00 0.00 37 1006.6
20260508231100 64 284 0.0 0.0 0.00 0.00 0.00 37 1006.5
20260508230605 64 284 0.0 0.0 0.00 0.00 0.00 37 1006.5
20260508230005 65 284 0.0 0.0 0.00 0.00 0.00 37 1006.5
20260508225559 65 284 0.0 0.0 0.00 0.00 0.00 37 1006.3
20260508225103 65 284 0.0 0.0 0.00 0.00 0.00 36 1006.3
20260508224611 65 284 0.0 0.0 0.00 0.00 0.00 36 1006.3
20260508224052 65 284 0.0 0.0 0.00 0.00 0.00 35 1006.4
20260508223555 65 284 0.0 0.0 0.00 0.00 0.00 35 1006.4
20260508223058 65 284 0.0 0.0 0.00 0.00 0.00 34 1006.4
20260508222603 65 284 0.0 0.0 0.00 0.00 0.00 34 1006.4
20260508222047 66 284 0.0 0.0 0.00 0.00 0.00 32 1006.4
20260508221551 66 284 0.0 0.0 0.00 0.00 0.00 30 1006.4
20260508221101 66 284 0.0 0.0 0.00 0.00 0.00 30 1006.3
20260508220548 66 284 0.0 0.0 0.00 0.00 0.00 28 1006.3
20260508220053 66 284 0.0 0.0 0.00 0.00 0.00 28 1006.3
20260508215558 66 284 0.0 0.0 0.00 0.00 0.00 28 1006.3
20260508215100 66 284 0.0 0.0 0.00 0.00 0.00 29 1006.3
20260508214647 66 267 0.0 0.0 0.00 0.00 0.00 29 1006.3
20260508214002 66 284 0.0 0.0 0.00 0.00 0.00 30 1006.3
20260508213504 66 284 0.0 0.0 0.00 0.00 0.00 28 1006.3
20260508213058 66 284 0.0 0.0 0.00 0.00 0.00 29 1006.3
20260508212601 66 284 0.0 0.0 0.00 0.00 0.00 28 1006.2
20260508212104 66 311 0.0 0.0 0.00 0.00 0.00 28 1006.2
20260508211501 67 288 0.0 0.0 0.00 0.00 0.00 28 1006.2
20260508211053 67 288 0.0 0.0 0.00 0.00 0.00 27 1006.1
20260508210557 68 265 0.0 0.0 0.00 0.00 0.00 26 1006.1
20260508210101 68 241 0.0 0.0 0.00 0.00 0.00 25 1006.1
20260508205605 67 240 0.0 0.0 0.00 0.00 0.00 27 1006.2
20260508205107 67 292 0.0 0.0 0.00 0.00 0.00 28 1006.2
20260508204504 67 272 0.0 0.0 0.00 0.00 0.00 27 1006.2
20260508204008 66 263 0.0 0.0 0.00 0.00 0.00 27 1006.5
20260508203507 66 306 0.0 0.0 0.00 0.00 0.00 29 1006.5
20260508203120 66 328 0.0 0.0 0.00 0.00 0.00 29 1006.5
20260508202552 65 278 0.0 0.0 0.00 0.00 0.00 28 1006.7
20260508202058 65 278 0.0 0.0 0.00 0.00 0.00 28 1006.7
20260508201602 65 265 0.0 0.0 0.00 0.00 0.00 28 1006.7
20260508201104 65 256 0.0 0.0 0.00 0.00 0.00 28 1006.7
20260508200605 65 275 0.0 0.0 0.00 0.00 0.00 29 1006.7
20260508200001 65 270 0.0 0.0 0.00 0.00 0.00 28 1006.7
20260508195555 66 319 0.0 0.0 0.00 0.00 0.00 28 1006.8
20260508195057 66 301 0.0 0.0 0.00 0.00 0.00 30 1006.8
20260508194601 66 260 0.0 0.0 0.00 0.00 0.00 27 1006.8
20260508194104 66 272 0.0 0.0 0.00 0.00 0.00 29 1007.1
20260508193551 66 313 0.0 0.0 0.00 0.00 0.00 30 1007.1
20260508193140 65 281 0.0 0.0 0.00 0.00 0.00 28 1007.1
20260508192502 65 265 0.0 0.0 0.00 0.00 0.00 31 1007.1
20260508192054 65 335 0.0 0.0 0.00 0.00 0.00 31 1007.1
20260508191604 66 312 0.0 0.0 0.00 0.00 0.00 31 1007.1
20260508191059 66 312 0.0 0.0 0.00 0.00 0.00 29 1007.2
20260508190602 66 275 0.0 0.0 0.00 0.00 0.00 28 1007.2
20260508190049 66 309 0.0 0.0 0.00 0.00 0.00 31 1007.2
20260508185558 66 319 0.0 0.0 0.00 0.00 0.00 28 1007.3
20260508185059 66 301 0.0 0.0 0.00 0.00 0.00 29 1007.3
20260508184603 65 268 0.0 0.0 0.00 0.00 0.00 29 1007.3